Regional Weather Roundup
Issued by NWS Charleston, SC

Home | Current Version | Previous Version | Text Only | Print | Product List | Glossary On
Versions: 1 2 3 4 5 6 7 8 9 10 11 12 13 14 15 16 17 18 19 20 21 22 23 24 25 26 27 28 29 30 31 32 33 34 35 36 37 38 39 40 41 42 43 44 45 46 47 48 49 50
000
ASUS42 KCHS 021111
RWRCHS

REGIONAL WEATHER ROUNDUP
NATIONAL WEATHER SERVICE CHARLESTON SC
600 AM EST MON MAR 02 2015

NOTE: "FAIR" INDICATES FEW OR NO CLOUDS BELOW 12,000 FEET WITH NO
SIGNIFICANT WEATHER AND/OR OBSTRUCTIONS TO VISIBILITY.

NOT ALL STATIONS ARE QUALITY CONTROLLED BY THE NATIONAL
WEATHER SERVICE. USE DATA WITH CAUTION...ESPECIALLY
DEWPOINT OBSERVATIONS.

SCZ027-030-031-034>040-042>050-021200-
...SOUTHEAST SOUTH CAROLINA...

CITY           SKY/WX    TMP DP  RH WIND       PRES   REMARKS
N CHARLESTON   FOG       45  44  97 SW3       30.29S VSB 1/8
WATERFRONT PRK   N/A     46 N/A N/A SW3         N/A
MOUNT PLEASANT FOG       46  45  93 SW3       30.28F VSB 1/4
PINOPOLIS        N/A     46  46 100 SW6       30.19S
MONCKS CORNER  FOG       46  45  93 SW5       30.28R VSB 1/2
SUMMERVILLE    FOG       45  45 100 CALM      30.30  VSB 1/2
BEAUFORT MCAS  FOG       47  46  97 SW3       30.30S VSB 3/4
BEAUFORT ARPT  CLOUDY    46  46 100 CALM      30.29S FOG
HILTON HEAD IS NOT AVBL
WALTERBORO     FOG       46  46 100 SW3       30.30R VSB 1
ALLENDALE      CLOUDY    46  46 100 CALM      30.29R FOG

...SOUTHERN MIDLANDS AND PEE DEE...

CITY           SKY/WX    TMP DP  RH WIND       PRES   REMARKS
GEORGETOWN     NOT AVBL
KINGSTREE      NOT AVBL
ORANGEBURG     FOG       45  43  93 W6        30.28R VSB 1/2
BARNWELL       CLOUDY    45  45 100 SW6       30.29S FOG
AIKEN          FOG       45  45 100 W9        30.30S VSB 1/2
MANNING        FOG      N/A N/A N/A CALM      30.26S VSB 3/4
COLUMBIA       CLOUDY    46  45  96 SW3       30.25R FOG
SUMTER         MOCLDY    45  45 100 SW5       30.24R FOG
FLORENCE       FOG       43  42  97 SW6       30.24F VSB 1
MYRTLE BEACH   FOG       45  43  93 SW6       30.27S VSB 1/2
N MYRTLE BEACH FOG       44  43  96 SW6       30.26R VSB 1/2

$$

GAZ063-065-086>088-099>101-113>116-118-119-134>141-150-021200-
...SOUTHEAST GEORGIA...

CITY           SKY/WX    TMP DP  RH WIND       PRES   REMARKS
SAVANNAH ARPT  FOG       47  46  97 S3        30.30S VSB 1/2
HUNTER AAF     FOG       48  48 100 S1        30.27F VSB 1
FORT STEWART   FOG       49  48  97 CALM      30.28F VSB 3/4
STATESBORO     CLOUDY    46  46 100 S7        30.28F FOG
SYLVANIA       FOG       46  46 100 CALM      30.30F VSB 1/2
CLAXTON        FOG       46  46 100 CALM      30.33R VSB 1/2

...CSRA...CENTRAL AND FAR SOUTHEAST GEORGIA...

CITY           SKY/WX    TMP DP  RH WIND       PRES   REMARKS
THOMSON        CLOUDY    47  47 100 CALM      30.32S VSB 1/2
AUGUSTA-BUSH   CLOUDY    45  44  97 W3        30.29S
AUGUSTA-DANIEL CLOUDY    47  45  93 S3        30.27F FOG
SWAINSBORO     FOG       46  46 100 CALM      30.29S VSB 3/4
VIDALIA        FOG       46  46 100 CALM      30.30F VSB 1/2
EASTMAN        CLOUDY    47  47 100 CALM      30.32S FOG
HAZLEHURST     FOG       49  49 100 CALM      30.28F VSB 3/4
ALMA           FOG       50  50 100 CALM      30.28F VSB 1/2
WAYCROSS       FOG       55  55 100 S3        30.27F VSB 1/4
JESUP          FOG       54  52  94 CALM      30.29F VSB 1/4
BAXLEY         FOG       52  52 100 N9G17     30.32R VSB 1/4
BRUNSWICK      CLOUDY    52  50  93 CALM      30.30F
SAINT SIMONS   FOG       50  50 100 CALM      30.30F VSB 1/2

$$

SCZ027-028-034-036>038-045-046-048>050-GAZ119-141-021200-
...LAKE AND SUPPLEMENTAL COASTAL OBSERVATIONS...

STATION/POSITION TIME  TEMP    WIND        PRES    WAVE   SWELL
                       AIR SEA DIR/SP/G            HT/PER HT/PER/DIR
                 (UTC) (F)     (DEG/KT/KT) (MB)    (FT/S) (FT/S/D)
UPR LAKE MARION  NOT AVBL
WINYAH BAY       NOT AVBL
LAKE MURRAY      1000   45     270/  4/  6 1023.4S
ACE BASIN NERRS  NOT AVBL
FORT PULASKI     1000   47 48  160/  1/  2 1026.3F
SAPELO ISLAND    1000   51        CALM     1026.0S

$$

ANZ835-935-AMZ111-154-330-350-352-354-370-450-454-472-021200-
...C-MAN AND BUOY OBSERVATIONS...

STATION/POSITION TIME  TEMP    WIND        PRES    WAVE   SWELL
                       AIR SEA DIR/SP/G            HT/PER HT/PER/DIR
                 (UTC) (F)     (DEG/KT/KT) (MB)    (FT/S) (FT/S/D)
BUOY 41004       1050   60 68  250/ 10/ 12 1024.6F   5/ 8   5/ 8
BUOY 41008       1050   50 55   CALM  /  2 1026.0F   4/10   3/ 90/10
FOLLY BEACH CMAN 1100   46     240/  3/  3 1025.9F
CAPERS NEARSHORE NOT AVBL
FRIPP NEARSHORE  1000   47     240/  4/  6 1025.0F


STATION/POSITION TIME  TEMP    WIND        PRES    WAVE   SWELL
                       AIR SEA DIR/SP/G            HT/PER HT/PER/DIR
                 (UTC) (F)     (DEG/KT/KT) (MB)    (FT/S) (FT/S/D)
5E ST. MARYS GA  1021      52                N/A     4/10   2/ 90/11
FRYING PAN BUOY  1050   58 62  270/ 16/ 17 1024.3R   4/ 8   3/120/ 8
BUOY 41025       NOT AVBL
CAPE LOOKOUT NC  1000   45     260/ 11/ 13 1023.0R
BUOY 41002       1050   71 72  230/ 14/ 17 1025.3R   6/ 9   5/110/ 9
BUOY 41010       1020   73 75  190/  6/  8 1025.5R
ST AUGUSTINE FL  1100   52     360/ 10/ 11 1027.2R


$$


USA.gov is the U.S. government's official web portal to all federal, state and local government web resources and services.